Location: Brusturi
(46.3500°N, 22.5833°E)
Time: 07:23:50
(UTC+00:00)

Daily predictions for brighter satellites

Satellite Brightness Start Highest point End
(mag) Time Altitude Azimuth Time Altitude Azimuth Time Altitude Azimuth
YAOGAN 1 3.1 16:37:53 10° SE 16:41:52 37° ENE 16:45:51 10° N
Cosmos 841 Rocket 4.2 16:38:23 10° N 16:43:03 33° ENE 16:47:40 10° ESE
SKYMED 2 3.5 16:39:08 10° NNE 16:43:30 80° ESE 16:47:51 10° S
In-Cosmos 22 4.2 16:39:51 10° NNW 16:45:11 84° W 16:50:27 10° S
SL-4 R/B 3.1 16:42:37 10° WNW 16:46:48 42° N 16:51:14 10° ENE
Cosmos 1190 Rocket 4.5 16:43:01 10° SSW 16:48:12 68° WNW 16:53:25 10° NNE
Cosmos 2279 Rocket 4.1 16:42:15 10° N 16:48:24 55° ENE 16:54:30 10° SSE
Cosmos 1954 Rocket 4.0 16:43:17 10° SSW 16:48:26 84° ESE 16:53:38 10° NNE
Meteor 1-21 4.4 16:44:58 10° NNW 16:50:44 84° W 16:56:24 10° S
Cosmos 1763 Rocket 3.4 16:47:08 10° NNW 16:52:14 88° ENE 16:57:19 10° SSE
Cosmos 1634 Rocket 4.0 16:46:39 10° N 16:52:51 88° E 16:59:03 10° S
NOSS 3-1 (A) 4.2 16:45:32 10° NW 16:53:02 88° SW 17:01:54 10° SE
OBJECT-B 2.4 16:54:33 11° ENE 16:55:01 11° ENE 16:55:46 10° NE
Aureole 1 4.4 16:53:05 10° S 16:55:56 44° ESE 16:59:04 10° NNE
Cosmos 2219 3.4 16:50:41 10° NNW 16:56:28 84° WSW 17:02:14 10° SSE
Cosmos 1869 Rocket 4.1 16:53:02 10° SSW 16:57:27 65° W 17:01:56 10° N
Cosmos 2221 Rocket 4.0 16:54:23 10° N 16:58:42 43° ENE 17:03:01 10° SSE
ISS -3.0 16:57:52 10° WNW 17:01:05 41° NNE 17:03:48 13° E
NOSS 2-2 (D) 4.4 16:56:37 10° NW 17:01:37 82° SW 17:08:45 10° SSE
Cosmos 2360 4.2 16:58:06 10° SSW 17:03:49 87° ESE 17:09:35 10° NNE
SL-14 R/B 3.7 17:01:20 10° N 17:05:04 40° ENE 17:08:49 10° SSE
USA 215 4.0 16:59:41 10° NE 17:05:59 51° NNW 17:12:14 10° W
Cosmos 2263 Rocket 2.7 17:01:51 10° NNW 17:07:16 42° NE 17:12:35 10° SE
Cosmos 1741 Rocket 4.3 17:04:32 10° S 17:09:31 44° ESE 17:14:30 10° NNE
HJ-1C 3.1 17:07:05 10° SSE 17:10:10 63° ENE 17:13:15 10° N
Cosmos 1805 3.2 17:08:11 10° S 17:11:59 57° E 17:15:48 10° NNE
Cosmos 1378 Rocket 3.9 17:07:56 10° N 17:12:08 42° ENE 17:16:16 10° SSE
Cosmos 2082 3.7 17:10:22 10° NNW 17:16:09 79° ENE 17:21:52 10° SSE
USA 186 3.1 17:16:11 19° E 17:17:17 23° ENE 17:19:56 10° NNE
Cosmos 1733 Rocket 3.0 17:17:36 10° S 17:22:01 81° E 17:26:30 10° N
ARGOS Delta rocket 4.1 17:16:45 10° N 17:22:10 89° W 17:27:16 10° SSW
Cosmos 1766 3.7 17:20:47 10° SSE 17:24:23 37° E 17:28:02 10° NNE
BREEZE-M DEB (TANK) 4.1 17:20:43 10° SW 17:25:16 73° SSE 17:44:35 10° ENE
Okean-O 3.5 17:23:08 18° ESE 17:25:31 30° ENE 17:29:22 10° N
Cosmos 1697 Rocket 3.2 17:20:22 10° SW 17:25:56 64° WNW 17:31:33 10° NNE
Cosmos 1242 Rocket 2.7 17:24:36 10° SSW 17:28:10 73° WNW 17:31:44 10° N
CSL-04 Debris 4.5 17:24:34 10° SE 17:29:41 45° ENE 17:34:49 10° N
Cosmos 1726 2.1 17:27:06 10° S 17:30:39 56° E 17:34:15 10° NNE
COSMO-SKYMED 1 4.5 17:27:31 10° N 17:31:26 33° WNW 17:35:20 10° SW
Cosmos 2084 3.3 17:33:50 10° SW 17:37:40 75° NW 17:41:29 10° NE
IRIDIUM 106 4.2 17:32:45 10° S 17:37:55 68° E 17:43:07 10° N
Feng Yun 1-1 Rocket 4.3 17:42:40 10° SSE 17:48:12 78° WSW 17:53:40 10° NNW
Cosmos 2285 Rocket 4.1 17:42:06 10° NNW 17:48:21 57° ENE 17:52:21 23° SE
Cosmos 2227 Rocket 4.3 17:44:56 10° NW 17:49:37 27° WSW 17:54:17 10° SSW
Meteor 2-16 Rocket 4.5 17:43:55 10° SSE 17:49:52 56° E 17:55:51 10° NNE
Timation 2 Rocket 3.9 17:43:35 10° NNW 17:50:07 86° ENE 17:55:08 17° SSE
Gbstr 26 Del rocket 4.5 17:43:31 10° SW 17:51:02 65° SE 17:57:33 17° ENE
Cosmos 1470 4.5 17:53:20 19° NE 17:53:20 19° NE 17:54:42 10° NNE
Meteor 1-12 Rocket 4.3 17:45:24 10° S 17:51:17 65° E 17:57:16 10° NNE
Cosmos 1733 4.5 17:48:04 10° SSW 17:51:39 42° WNW 17:55:14 10° N
CZ-4 R/B 2.1 17:48:20 10° S 17:52:24 55° W 17:56:32 10° NNW
Cosmos 2026 Rocket 4.3 17:48:39 10° SSE 17:54:11 39° E 17:59:46 10° NNE
CZ-4B R/B 4.4 17:49:09 10° S 17:54:12 43° W 17:59:24 10° NNW
deb Chang Zheng 4 4.2 17:58:36 33° ENE 17:58:36 33° ENE 18:02:08 10° N
Okean O Rocket 2.8 17:55:23 10° S 17:59:29 42° W 18:03:39 10° NNW
Nadezhda 4 Rocket 4.0 17:54:17 10° S 18:00:38 87° E 18:07:00 10° N
CSL-04 Rocket 3.5 17:57:05 20° SSE 18:00:48 72° ENE 18:06:11 10° N
SJ-6B 2.5 18:01:55 46° SSE 18:02:56 79° ENE 18:06:43 10° N
Cosmos 1908 Rocket 3.4 18:00:55 10° S 18:05:15 81° E 18:09:36 10° N
Cosmos 1980 Rocket 2.7 18:00:07 10° SW 18:05:42 62° WNW 18:11:17 10° NNE
JB-3 4.3 18:02:31 10° NNE 18:06:32 56° E 18:06:34 56° ESE
Cosmos 968 Rocket 3.6 18:04:28 10° S 18:09:33 51° ESE 18:14:38 10° NNE
MetOp-A 4.3 18:10:47 32° NE 18:10:47 32° NE 18:13:27 10° N
Cosmos 2369 4.5 18:05:36 10° SW 18:11:11 53° WNW 18:16:48 10° NNE
Cosmos 1782 Rocket 4.1 18:13:45 41° NE 18:13:45 41° NE 18:16:58 10° NNE
Meteor 1-24 Rocket 3.5 18:11:41 10° N 18:16:58 64° ENE 18:18:19 47° SE
Cosmos 2278 3.7 18:13:07 10° SSW 18:18:50 84° WNW 18:24:33 10° NNE
Landsat 5 3.8 18:14:28 10° N 18:18:58 75° WNW 18:23:25 10° SSW
Landsat 7 3.6 18:19:20 55° SE 18:20:17 75° ENE 18:25:01 10° N
Ariane Rocket 4.2 18:22:21 27° NE 18:22:21 27° NE 18:25:52 10° N
SL-16 R/B 2.2 18:17:19 10° S 18:22:47 52° ESE 18:28:17 10° NE
Cosmos 2292 Rocket 4.0 18:17:42 10° S 18:23:43 82° W 18:28:13 10° N
Cosmos 1437 Rocket 2.9 18:24:58 60° N 18:24:58 60° N 18:28:07 10° N
OBJECT-B 2.7 18:25:24 23° WNW 18:25:24 23° WNW 18:27:04 10° NW
Meteor 1-22 Rocket 4.0 18:20:29 10° S 18:25:49 75° E 18:31:22 10° NNE
SL-4 R/B 2.2 18:22:15 10° WNW 18:26:48 71° NNE 18:27:05 68° NE
Cosmos 1570 Rocket 3.9 18:21:53 10° NNW 18:27:12 83° ENE 18:28:15 58° SSE
MOS 1 4.4 18:27:45 51° E 18:28:15 53° ENE 18:33:44 10° N
H-2A R/B 3.2 18:32:30 41° N 18:32:30 41° N 18:35:13 10° N
Cosmos 1844 Rocket 3.1 18:28:55 10° NNW 18:34:20 44° NE 18:34:20 44° NE
Cosmos 2278 Rocket 4.5 18:33:54 10° NNE 18:34:59 10° NNE 18:35:37 10° NE
Cosmos 1092 Rocket 3.9 18:30:11 10° S 18:36:32 88° W 18:42:51 10° N
ISS -2.0 18:34:37 10° WNW 18:36:41 32° W 18:36:41 32° W
Cosmos 1025 Rocket 3.5 18:34:48 10° N 18:38:03 50° N 18:38:03 50° N
Resurs 01 Rocket 2.3 18:42:03 44° NNE 18:42:03 44° NNE 18:45:13 10° N
Terra 4.2 18:44:56 12° NNE 18:44:56 12° NNE 18:45:27 10° NNE
Meteor 2-5 Rocket 3.9 18:38:43 10° NNW 18:44:14 68° W 18:46:13 39° SSW
Cosmos 1975 Rocket 3.4 18:39:58 10° N 18:43:37 60° NNW 18:43:37 60° NNW
USA 215 4.4 18:44:25 20° NE 18:48:12 35° N 18:54:01 10° WNW
Cosmos 2208 Rocket 4.0 18:43:47 10° NNW 18:49:11 83° WSW 18:49:30 78° SSW
USA 186 4.2 18:49:21 21° W 18:49:32 21° W 18:52:07 10° NW
Cosmos 2263 Rocket 3.6 18:46:00 10° NW 18:51:06 34° WSW 18:54:19 19° SSW
Cosmos 1844 4.1 18:47:07 10° NNW 18:51:49 47° NNE 18:51:49 47° NNE
USA 81 4.2 18:47:27 10° N 18:52:43 70° W 18:53:33 59° SW
Okean-O 4.3 19:00:42 26° SW 19:01:55 31° W 19:05:53 10° NNW
S3M 4.5 19:01:24 10° N 19:06:13 47° NE 19:06:13 47° NE
IRS-1A Rocket 4.4 19:14:07 73° NW 19:14:07 73° NW 19:19:26 10° NNW
USA 281 3.7 19:20:06 46° NE 19:20:06 46° NE 19:25:32 10° NNW
SPOT 1/Viking Rocket 4.3 19:22:41 51° WNW 19:22:41 51° WNW 19:26:54 10° NNW
Cosmos 2322 Rocket 4.1 19:43:57 21° NNE 19:43:57 21° NNE 19:45:44 10° NNE
ATLAS 2AS CENTAUR R/B 4.3 19:59:06 10° NNW 20:04:57 25° NNE 20:05:21 25° NNE
SL-16 R/B 3.9 20:02:15 10° WSW 20:07:10 30° NW 20:12:07 10° N
Cosmos 2278 Rocket 4.3 20:15:22 10° NNW 20:17:26 21° N 20:17:26 21° N
USA 215 4.4 20:31:46 38° NNW 20:31:46 38° NNW 20:36:27 10° NW
